[[{"header":{"parameterUnit":"m.s-1","parameterCategory":1,"la1":30.2991,"la2":30.254,"lo1":-89.0895,"lo2":-89.0444,"dy":0.0017,"dx":0.0017,"nx":28,"ny":28,"refTime":"2026-02-06T09:00:00:Z","depth":0,"parameterNumber":2,"parameterNumberName":"U-component_of_WINDS"},"data":[0,0,0,0,0,0,0,0,0,0,0,0,0,0,0,0,0,0,0,0,0,0,0,0,0,0,0,0,0,0,0,0,0,0,0,0,0,0,0,0,0,0,0,0,0,0,0,0,0,0,0,0,0,0,0,0,0,0,2.3451,2.3452,0,2.3525,2.3526,2.3527,2.3486,2.3484,2.3482,2.348,2.3558,2.3562,2.3566,0,0,0,0,0,0,0,0,0,0,0,0,0,2.3277,2.328,2.3451,2.3452,2.3453,2.3525,2.3526,2.3527,2.3487,2.3484,2.3482,2.348,2.3557,2.3562,2.3566,0,0,0,0,0,0,0,0,0,0,0,0,0,2.3352,2.3282,2.3451,2.3441,2.3441,2.3525,2.3526,2.3527,2.3487,2.3484,2.3481,2.3478,2.3555,2.3561,2.3567,2.3664,0,0,2.3585,2.3588,0,0,0,0,0,0,0,0,2.3348,2.3359,2.3442,2.3442,2.3442,2.3493,2.3493,2.3573,2.3488,2.347,2.348,2.3477,2.3539,2.3546,2.3567,2.3668,2.3671,2.3586,2.3589,2.3592,2.3593,0,0,0,0,0,0,0,2.3343,2.3355,2.348,2.3443,2.3443,2.3434,2.3442,2.3508,2.3521,2.3471,2.3468,2.3478,2.3539,2.3561,2.3568,2.3673,2.3585,2.3591,2.3594,2.3597,2.386,2.3863,0,0,0,0,0,0,2.3338,2.3351,2.3478,2.3482,2.3387,2.344,2.3448,2.348,2.352,2.3523,2.348,2.3476,2.3553,2.3562,2.3571,2.3689,2.3592,2.3597,2.3601,2.3856,2.386,2.3864,0,0,0,0,0,0,2.3334,2.3349,2.3475,2.3416,2.3431,2.3446,2.3482,2.3483,2.3506,2.3527,2.3529,2.3501,2.3551,2.3563,2.3642,2.3691,2.36,2.3605,2.3852,2.3858,2.3862,2.3926,0,0,0,0,0,0,2.3329,2.3348,2.3385,2.3417,2.3435,2.3544,2.3485,2.3487,2.3516,2.351,2.3547,2.355,2.3549,2.3633,2.3648,2.3698,2.361,2.3848,2.3855,2.3861,2.3919,2.3932,2.3943,0,0,0,0,0,2.3323,2.34,2.3387,2.3403,2.3481,2.3547,2.3557,2.3554,2.352,2.3557,2.3571,2.3549,2.3683,2.3642,2.3658,2.371,2.3845,2.3853,2.386,2.3914,2.393,2.3943,0,0,0,0,0,0,2.3373,2.3404,2.339,2.3479,2.3511,2.354,2.3587,2.3571,2.3613,2.3607,2.3602,2.361,2.3693,2.3709,2.3662,2.3808,2.3759,2.377,2.3794,2.3809,2.3821,2.3816,2.3615,0,0,0,0,0,2.3395,2.3445,2.3469,2.3546,2.3562,2.3572,2.3601,2.3596,2.3629,2.3642,2.3662,2.3695,2.3745,2.3778,2.3825,2.3921,2.3929,2.3965,2.3978,2.3987,2.3997,2.4051,2.4068,2.3889,2.3889,2.3889,0,0,2.3439,2.3462,2.3494,2.3556,2.358,2.3634,2.3583,2.3642,2.3682,2.3651,2.3727,2.3743,2.378,2.3869,2.3909,2.3885,2.4049,2.3997,2.4005,2.401,2.4061,2.4078,2.4093,2.3895,2.3894,2.3893,0,0,2.3548,2.357,2.3637,2.3662,2.3699,2.3705,2.3721,2.3753,2.3762,2.3839,2.3817,2.3865,2.3951,2.3979,2.4004,2.4125,2.4107,2.4141,2.4204,2.4257,2.4271,2.4284,2.4328,2.4344,2.415,2.4151,2.4151,0,2.3599,2.3678,2.3673,2.3734,2.3762,2.3737,2.3805,2.383,2.3881,2.3901,2.3874,2.3982,2.4005,2.41,2.413,2.4151,2.4171,2.4137,2.4269,2.4282,2.4293,2.4336,2.4353,2.4155,2.4154,2.4154,2.4153,0,2.374,2.3795,2.3845,2.3895,2.3929,2.3993,2.3998,2.4034,2.4026,2.4036,2.4115,2.4142,2.4194,2.4217,2.421,2.4312,2.4296,2.4269,2.422,2.4314,2.4354,2.4371,2.416,2.4159,2.4158,2.4157,0,0,2.3882,2.3929,2.3947,2.397,2.4009,2.4053,2.4116,2.4168,2.4199,2.4235,2.4289,2.4363,2.4338,2.4367,2.4364,2.441,2.4506,2.4377,2.4378,2.4401,2.4622,2.4643,2.4662,2.4494,2.4497,2.4499,2.4619,0,2.3995,2.4105,2.4103,2.4207,2.4259,2.4236,2.4291,2.4322,2.4333,2.438,2.4392,2.4445,2.4408,2.4425,2.447,2.4485,2.455,2.4476,2.4545,2.4548,2.4538,2.4682,2.4704,2.4816,2.4635,2.4637,2.4639,0,2.4141,2.4182,2.429,2.4323,2.4345,2.4395,2.4443,2.4487,2.4522,2.4527,2.456,2.4549,2.4616,2.4564,2.4656,2.4606,2.4634,2.4646,2.465,2.4657,2.46,2.4695,2.4852,2.4869,2.4664,2.4662,2.466,0,2.4236,2.4318,2.4394,2.4414,2.4454,2.449,2.4508,2.454,2.4572,2.4614,2.4635,2.4684,2.4711,2.475,2.4754,2.4716,2.4847,2.4796,2.4854,2.4854,2.4883,2.4882,2.5049,2.49,2.49,2.49,2.4899,0,2.4362,2.443,2.4437,2.4484,2.4559,2.4557,2.4632,2.4647,2.4676,2.4726,2.4709,2.4757,2.4759,2.4808,2.4811,2.4888,2.49,2.4907,2.4907,2.4909,2.4908,2.4928,2.4921,2.4904,2.4903,2.4902,2.4901,0,2.4481,2.4488,2.457,2.4601,2.4611,2.4665,2.4692,2.4738,2.4747,2.4811,2.4826,2.4842,2.4899,2.4906,2.4973,2.4976,2.5068,2.506,2.5056,2.5055,2.5114,2.5109,2.53,2.5326,2.516,2.5161,2.5163,0,2.4561,2.4613,2.465,2.4682,2.4703,2.4755,2.4787,2.4787,2.4821,2.4866,2.4906,2.4962,2.5006,2.5099,2.5117,2.5169,2.5162,2.5226,2.517,2.5171,2.5165,2.5162,2.5168,2.5237,2.5238,2.524,2.5241,0,2.4704,2.4706,2.4752,2.4801,2.484,2.4878,2.4914,2.4942,2.4946,2.4986,2.5044,2.5079,2.5147,2.5203,2.5255,2.5275,2.526,2.5259,2.5275,2.5278,2.5274,2.5279,2.5087,2.5254,2.5253,2.5252,2.5251,2.5251,2.4808,2.4853,2.4886,2.4939,2.4966,2.5001,2.5045,2.506,2.5109,2.5164,2.5161,2.5226,2.5261,2.5328,2.5352,2.5404,2.5383,2.5407,2.5413,2.5419,2.5425,2.5265,2.5413,2.5413,2.5412,2.5412,2.5412,0,2.4951,2.4971,2.502,2.5071,2.5113,2.5094,2.5133,2.517,2.5227,2.5261,2.5305,2.5373,2.5428,2.545,2.5504,2.5541,2.5535,2.5555,2.5553,2.5558,2.544,2.5421,2.5559,2.5559,2.5559,2.5559,2.5559,2.5559,2.503,2.5106,2.5112,2.5202,2.5222,2.5285,2.5309,2.5341,2.5368,2.5445,2.549,2.5504,2.5534,2.559,2.5639,2.5645,2.5666,2.5689,2.5692,2.5581,2.5566,2.5552,2.5534,2.5693,2.5694,2.5805,2.5806,2.5807]},{"header":{"parameterUnit":"m.s-1","parameterCategory":1,"la1":30.2991,"la2":30.254,"lo1":-89.0895,"lo2":-89.0444,"dy":0.0017,"dx":0.0017,"nx":28,"ny":28,"refTime":"2026-02-06T09:00:00:Z","depth":0,"parameterNumber":3,"parameterNumberName":"V-component_of_WINDS"},"data":[0,0,0,0,0,0,0,0,0,0,0,0,0,0,0,0,0,0,0,0,0,0,0,0,0,0,0,0,0,0,0,0,0,0,0,0,0,0,0,0,0,0,0,0,0,0,0,0,0,0,0,0,0,0,0,0,0,0,-2.0343,-2.0344,0,-2.0514,-2.0516,-2.0517,-2.0538,-2.0536,-2.0535,-2.0533,-2.0709,-2.0716,-2.0722,0,0,0,0,0,0,0,0,0,0,0,0,0,-2.0036,-2.0041,-2.0342,-2.0345,-2.0347,-2.0513,-2.0516,-2.0518,-2.0538,-2.0536,-2.0534,-2.0532,-2.0707,-2.0715,-2.0722,0,0,0,0,0,0,0,0,0,0,0,0,0,-2.0184,-2.0043,-2.0342,-2.0377,-2.0382,-2.0513,-2.0516,-2.0519,-2.0539,-2.0536,-2.0534,-2.0531,-2.0705,-2.0714,-2.0723,-2.0832,0,0,-2.0752,-2.0756,0,0,0,0,0,0,0,0,-2.0176,-2.0195,-2.037,-2.0375,-2.038,-2.0502,-2.0472,-2.0624,-2.0539,-2.0479,-2.0533,-2.053,-2.0643,-2.0657,-2.0695,-2.084,-2.0848,-2.0753,-2.0759,-2.0763,-2.0765,0,0,0,0,0,0,0,-2.0165,-2.0188,-2.041,-2.0372,-2.0379,-2.0385,-2.0403,-2.0501,-2.0573,-2.0484,-2.0486,-2.0506,-2.0645,-2.0685,-2.0699,-2.085,-2.0753,-2.0761,-2.0767,-2.077,-2.1096,-2.1098,0,0,0,0,0,0,-2.0148,-2.0179,-2.0405,-2.0415,-2.027,-2.0392,-2.0413,-2.0465,-2.0572,-2.0586,-2.0508,-2.0506,-2.0671,-2.0688,-2.0705,-2.084,-2.0763,-2.0771,-2.0777,-2.1093,-2.1096,-2.1099,0,0,0,0,0,0,-2.0142,-2.0168,-2.0398,-2.0298,-2.0328,-2.04,-2.0459,-2.047,-2.0511,-2.059,-2.0603,-2.0536,-2.0669,-2.0692,-2.0801,-2.0847,-2.0776,-2.0784,-2.1089,-2.1094,-2.1098,-2.1111,0,0,0,0,0,0,-2.0133,-2.0166,-2.0207,-2.0299,-2.0333,-2.049,-2.0462,-2.0475,-2.0527,-2.0526,-2.062,-2.0633,-2.0669,-2.0786,-2.081,-2.0858,-2.0791,-2.1085,-2.1091,-2.1096,-2.1107,-2.1115,-2.1123,0,0,0,0,0,-2.0122,-2.0204,-2.0209,-2.0236,-2.0386,-2.0492,-2.0512,-2.0552,-2.053,-2.0573,-2.0624,-2.063,-2.0838,-2.0797,-2.0824,-2.0876,-2.1082,-2.1089,-2.1096,-2.1103,-2.1114,-2.1122,0,0,0,0,0,0,-2.0115,-2.0216,-2.0223,-2.0337,-2.0406,-2.0495,-2.055,-2.0561,-2.0638,-2.0634,-2.0681,-2.0702,-2.0809,-2.0853,-2.0806,-2.0988,-2.0958,-2.0971,-2.0955,-2.0965,-2.0973,-2.096,-2.0799,0,0,0,0,0,-2.0127,-2.0204,-2.0289,-2.0381,-2.0415,-2.0477,-2.0525,-2.055,-2.0623,-2.0652,-2.0711,-2.0783,-2.0865,-2.0917,-2.0997,-2.1113,-2.1135,-2.1162,-2.117,-2.1176,-2.1187,-2.1254,-2.1267,-2.1122,-2.1122,-2.1121,0,0,-2.0152,-2.0217,-2.0263,-2.0382,-2.0438,-2.0518,-2.0501,-2.0586,-2.0646,-2.0665,-2.0772,-2.0818,-2.0901,-2.1014,-2.1067,-2.1055,-2.1232,-2.1185,-2.1189,-2.1197,-2.1262,-2.1276,-2.1288,-2.1126,-2.1125,-2.1125,0,0,-2.0239,-2.0295,-2.0379,-2.0436,-2.0522,-2.0563,-2.0583,-2.0671,-2.0703,-2.081,-2.0827,-2.0899,-2.1039,-2.1098,-2.1146,-2.1257,-2.1266,-2.1282,-2.1324,-2.1388,-2.14,-2.141,-2.1451,-2.1465,-2.1292,-2.1292,-2.1292,0,-2.026,-2.038,-2.0421,-2.0506,-2.0558,-2.058,-2.0666,-2.0719,-2.0826,-2.0862,-2.0847,-2.1023,-2.1081,-2.1209,-2.1236,-2.1274,-2.13,-2.1271,-2.1395,-2.1405,-2.1416,-2.1455,-2.1471,-2.1293,-2.1293,-2.1293,-2.1293,0,-2.0402,-2.0486,-2.0543,-2.0646,-2.0705,-2.079,-2.0845,-2.09,-2.092,-2.0963,-2.1073,-2.1143,-2.1238,-2.127,-2.129,-2.1402,-2.1392,-2.1385,-2.1356,-2.143,-2.1469,-2.1484,-2.1295,-2.1295,-2.1294,-2.1294,0,0,-2.0489,-2.0614,-2.0635,-2.0683,-2.078,-2.0846,-2.0932,-2.1025,-2.1072,-2.1145,-2.122,-2.1338,-2.1333,-2.1388,-2.1416,-2.1472,-2.1558,-2.1459,-2.1462,-2.1476,-2.1687,-2.1692,-2.1709,-2.1564,-2.1567,-2.157,-2.168,0,-2.0587,-2.0742,-2.0782,-2.0914,-2.0992,-2.1015,-2.109,-2.1159,-2.1201,-2.1275,-2.1322,-2.1406,-2.1392,-2.1426,-2.1483,-2.1535,-2.1601,-2.1528,-2.1635,-2.1639,-2.1614,-2.1728,-2.1734,-2.1835,-2.1695,-2.1698,-2.17,0,-2.0723,-2.08,-2.0939,-2.1028,-2.1062,-2.1129,-2.1218,-2.1288,-2.1367,-2.1394,-2.1456,-2.1479,-2.1571,-2.1538,-2.1667,-2.1616,-2.1663,-2.1696,-2.1701,-2.1713,-2.1674,-2.1744,-2.1868,-2.1883,-2.1723,-2.1722,-2.172,0,-2.0773,-2.0912,-2.1014,-2.1054,-2.1159,-2.1206,-2.1252,-2.1328,-2.1382,-2.146,-2.1496,-2.1584,-2.1632,-2.17,-2.1747,-2.1718,-2.1873,-2.1843,-2.1899,-2.1898,-2.1931,-2.1928,-2.2064,-2.1959,-2.1959,-2.1959,-2.1958,0,-2.0879,-2.0964,-2.1038,-2.1101,-2.1197,-2.1243,-2.1337,-2.1384,-2.1452,-2.1525,-2.155,-2.1618,-2.1675,-2.1752,-2.1788,-2.1891,-2.1912,-2.1938,-2.1947,-2.1936,-2.1933,-2.1967,-2.1962,-2.1963,-2.1962,-2.1961,-2.196,0,-2.0952,-2.1004,-2.1117,-2.1208,-2.1233,-2.13,-2.1378,-2.1441,-2.1485,-2.1577,-2.1602,-2.1671,-2.1762,-2.1815,-2.1931,-2.1956,-2.207,-2.2075,-2.2043,-2.2047,-2.2101,-2.2095,-2.2265,-2.229,-2.2167,-2.2168,-2.2169,0,-2.1016,-2.1082,-2.118,-2.1231,-2.1278,-2.1359,-2.1414,-2.1463,-2.1519,-2.1615,-2.1666,-2.1759,-2.1836,-2.1982,-2.2043,-2.2132,-2.214,-2.2193,-2.2154,-2.2142,-2.2143,-2.2138,-2.2146,-2.22,-2.2201,-2.2202,-2.2203,0,-2.1126,-2.1149,-2.1227,-2.1315,-2.1381,-2.1452,-2.1524,-2.1564,-2.1625,-2.1688,-2.1781,-2.1841,-2.196,-2.2052,-2.2147,-2.2195,-2.221,-2.2215,-2.2233,-2.2223,-2.2202,-2.2216,-2.2062,-2.2211,-2.221,-2.221,-2.2209,-2.2209,-2.1197,-2.1257,-2.1336,-2.1423,-2.1482,-2.1549,-2.1612,-2.1665,-2.1744,-2.1844,-2.1868,-2.1967,-2.2046,-2.2174,-2.2225,-2.2304,-2.2295,-2.2321,-2.2328,-2.2333,-2.2336,-2.2189,-2.2322,-2.2321,-2.2321,-2.2321,-2.2321,0,-2.1309,-2.1361,-2.144,-2.154,-2.1609,-2.1616,-2.1696,-2.1754,-2.1841,-2.1913,-2.1988,-2.2097,-2.2188,-2.2257,-2.235,-2.24,-2.2409,-2.2423,-2.242,-2.2431,-2.2338,-2.2314,-2.2414,-2.2414,-2.2414,-2.2414,-2.2414,-2.2414,-2.1375,-2.1478,-2.1511,-2.1644,-2.1696,-2.1793,-2.1838,-2.19,-2.1958,-2.2079,-2.2154,-2.2198,-2.227,-2.2368,-2.2452,-2.247,-2.2504,-2.2517,-2.2536,-2.2448,-2.2438,-2.2428,-2.2405,-2.2523,-2.2524,-2.2623,-2.2624,-2.2625]}]]